[[{"header":{"parameterUnit":"m.s-1","parameterCategory":1,"la1":30.2991,"la2":30.254,"lo1":-89.0895,"lo2":-89.0444,"dy":0.0017,"dx":0.0017,"nx":28,"ny":28,"refTime":"2023-08-25T09:00:00:Z","depth":0,"parameterNumber":2,"parameterNumberName":"U-component_of_WINDS"},"data":[0,0,0,0,0,0,0,0,0,0,0,0,0,0,0,0,0,0,0,0,0,0,0,0,0,0,0,0,0,0,0,0,0,0,0,0,0,0,0,0,0,0,0,0,0,0,0,0,0,0,0,0,0,0,0,0,0,0,1.0575,1.0576,0,1.0653,1.0654,1.0655,1.0655,1.0654,1.0653,1.0652,1.0734,1.0737,1.074,0,0,0,0,0,0,0,0,0,0,0,0,0,1.0429,1.0432,1.0575,1.0576,1.0577,1.0653,1.0654,1.0655,1.0656,1.0654,1.0653,1.0652,1.0733,1.0737,1.074,0,0,0,0,0,0,0,0,0,0,0,0,0,1.0498,1.0433,1.0575,1.0586,1.0588,1.0652,1.0654,1.0655,1.0656,1.0654,1.0653,1.0651,1.0732,1.0736,1.0741,1.0799,0,0,1.0755,1.0757,0,0,0,0,0,0,0,0,1.0495,1.0504,1.0584,1.0586,1.0588,1.0643,1.0632,1.0704,1.0656,1.063,1.0652,1.0651,1.0705,1.0712,1.073,1.0803,1.0807,1.0756,1.0758,1.076,1.0762,0,0,0,0,0,0,0,1.049,1.05,1.0606,1.0585,1.0587,1.0588,1.0597,1.0646,1.0675,1.0632,1.0633,1.0642,1.0706,1.0725,1.0732,1.0808,1.0755,1.076,1.0762,1.0764,1.0935,1.0936,0,0,0,0,0,0,1.0482,1.0496,1.0603,1.0608,1.0537,1.0592,1.0601,1.0627,1.0675,1.068,1.0643,1.0641,1.0718,1.0726,1.0735,1.0807,1.076,1.0765,1.0767,1.0933,1.0935,1.0937,0,0,0,0,0,0,1.0479,1.0492,1.06,1.0552,1.0566,1.0596,1.0625,1.0629,1.0648,1.0682,1.0688,1.0657,1.0717,1.0728,1.0783,1.081,1.0767,1.0771,1.0931,1.0934,1.0936,1.0952,0,0,0,0,0,0,1.0475,1.0491,1.0513,1.0553,1.0569,1.0647,1.0626,1.0632,1.0656,1.0655,1.0697,1.0703,1.0717,1.0776,1.0788,1.0815,1.0775,1.0929,1.0932,1.0935,1.0949,1.0955,1.096,0,0,0,0,0,1.047,1.0514,1.0514,1.0527,1.0597,1.0649,1.0658,1.0672,1.0658,1.0681,1.0703,1.0702,1.0805,1.0782,1.0795,1.0824,1.0927,1.0931,1.0935,1.0947,1.0954,1.0959,0,0,0,0,0,0,1.0477,1.052,1.052,1.0578,1.061,1.0649,1.0678,1.0679,1.0716,1.0713,1.073,1.074,1.0795,1.0815,1.0789,1.0884,1.0865,1.0871,1.0869,1.0876,1.0881,1.0875,1.0778,0,0,0,0,0,1.0485,1.0523,1.0558,1.0607,1.0623,1.0647,1.0671,1.0679,1.0713,1.0726,1.0752,1.0786,1.0826,1.0852,1.089,1.0952,1.0962,1.0979,1.0984,1.0988,1.0994,1.1029,1.1037,1.095,1.095,1.095,0,0,1.0503,1.0531,1.0554,1.0609,1.0634,1.0674,1.0659,1.0701,1.0731,1.0733,1.0787,1.0807,1.0846,1.0905,1.0932,1.0923,1.102,1.0993,1.0996,1.1,1.1034,1.1042,1.1049,1.0953,1.0952,1.0952,0,0,1.0555,1.058,1.0623,1.0649,1.0687,1.0704,1.0714,1.0753,1.0767,1.0821,1.0824,1.086,1.0928,1.0956,1.0979,1.1042,1.1043,1.1055,1.1082,1.1116,1.1123,1.1129,1.1153,1.1161,1.106,1.106,1.106,0,1.0572,1.0631,1.0645,1.0688,1.0713,1.0716,1.0761,1.0785,1.0835,1.0852,1.0841,1.0928,1.0954,1.102,1.1035,1.1053,1.1067,1.105,1.1121,1.1127,1.1133,1.1156,1.1165,1.1061,1.1061,1.1061,1.1061,0,1.0651,1.0692,1.0723,1.077,1.0798,1.0842,1.0863,1.089,1.0896,1.0914,1.097,1.1001,1.1047,1.1063,1.107,1.1131,1.1124,1.1117,1.1098,1.1142,1.1164,1.1173,1.1063,1.1063,1.1062,1.1062,0,0,1.071,1.0765,1.0776,1.0798,1.0841,1.0874,1.0918,1.0962,1.0985,1.1019,1.1057,1.1115,1.1109,1.1135,1.1145,1.1175,1.1225,1.1164,1.1165,1.1175,1.1296,1.1301,1.1311,1.1225,1.1227,1.1228,1.1293,0,1.0768,1.0846,1.086,1.0928,1.0967,1.0971,1.1009,1.104,1.1058,1.1095,1.1115,1.1156,1.1144,1.116,1.119,1.1212,1.1249,1.1208,1.1262,1.1264,1.1253,1.1323,1.1329,1.1388,1.1301,1.1303,1.1304,0,1.0846,1.0882,1.0954,1.0992,1.1009,1.1044,1.1086,1.112,1.1156,1.1167,1.1196,1.1203,1.125,1.1228,1.1294,1.1265,1.1288,1.1303,1.1306,1.1312,1.1287,1.1332,1.1407,1.1416,1.1317,1.1316,1.1315,0,1.0883,1.095,1.1001,1.102,1.1066,1.109,1.1111,1.1145,1.1171,1.1208,1.1225,1.1267,1.1291,1.1324,1.1342,1.1324,1.1407,1.1386,1.1419,1.1418,1.1437,1.1435,1.1518,1.145,1.145,1.145,1.1449,0,1.0947,1.0991,1.1019,1.1051,1.1101,1.1117,1.1166,1.1186,1.1217,1.1254,1.1259,1.1294,1.1316,1.1354,1.1368,1.1422,1.1432,1.1443,1.1447,1.1443,1.1442,1.1459,1.1456,1.1452,1.1451,1.1451,1.1451,0,1.0997,1.1017,1.1074,1.1113,1.1124,1.1159,1.1193,1.1225,1.1243,1.1289,1.1301,1.133,1.1375,1.1396,1.1452,1.1462,1.1523,1.1523,1.1511,1.1512,1.1544,1.1541,1.1641,1.1656,1.1577,1.1578,1.1578,0,1.1037,1.1071,1.1114,1.1138,1.1159,1.1199,1.1225,1.1243,1.127,1.1314,1.1341,1.1386,1.1423,1.1496,1.1522,1.1565,1.1567,1.1599,1.1574,1.157,1.1569,1.1568,1.1572,1.1604,1.1605,1.1606,1.1606,0,1.1106,1.1114,1.1152,1.1193,1.1224,1.1258,1.1291,1.1311,1.1334,1.1365,1.141,1.1439,1.1497,1.1542,1.1587,1.1609,1.1613,1.1614,1.1624,1.1621,1.1613,1.1619,1.1524,1.1612,1.1611,1.1611,1.161,1.161,1.1153,1.1184,1.1219,1.1261,1.1287,1.1318,1.135,1.1372,1.141,1.1457,1.1466,1.1515,1.1551,1.1612,1.1636,1.1675,1.1668,1.1682,1.1686,1.169,1.1692,1.1606,1.1683,1.1683,1.1683,1.1683,1.1683,0,1.1223,1.1246,1.1284,1.133,1.1363,1.1362,1.1398,1.1427,1.1469,1.1502,1.1539,1.1592,1.1637,1.1666,1.1712,1.1738,1.174,1.1749,1.1748,1.1753,1.1695,1.1682,1.1746,1.1746,1.1746,1.1746,1.1746,1.1746,1.1264,1.1316,1.1328,1.1394,1.1417,1.1465,1.1486,1.1515,1.1541,1.16,1.1637,1.1656,1.1688,1.1736,1.1777,1.1785,1.1801,1.1811,1.1819,1.1764,1.1757,1.1751,1.1739,1.1814,1.1814,1.1874,1.1874,1.1875]},{"header":{"parameterUnit":"m.s-1","parameterCategory":1,"la1":30.2991,"la2":30.254,"lo1":-89.0895,"lo2":-89.0444,"dy":0.0017,"dx":0.0017,"nx":28,"ny":28,"refTime":"2023-08-25T09:00:00:Z","depth":0,"parameterNumber":3,"parameterNumberName":"V-component_of_WINDS"},"data":[0,0,0,0,0,0,0,0,0,0,0,0,0,0,0,0,0,0,0,0,0,0,0,0,0,0,0,0,0,0,0,0,0,0,0,0,0,0,0,0,0,0,0,0,0,0,0,0,0,0,0,0,0,0,0,0,0,0,1.1095,1.1095,0,1.1113,1.1113,1.1113,1.1104,1.1104,1.1103,1.1103,1.1119,1.112,1.112,0,0,0,0,0,0,0,0,0,0,0,0,0,1.105,1.1051,1.1095,1.1095,1.1095,1.1113,1.1113,1.1113,1.1104,1.1104,1.1103,1.1102,1.1118,1.1119,1.112,0,0,0,0,0,0,0,0,0,0,0,0,0,1.1069,1.1051,1.1095,1.1093,1.1093,1.1113,1.1113,1.1114,1.1104,1.1103,1.1103,1.1102,1.1118,1.1119,1.1121,1.1143,0,0,1.1125,1.1125,0,0,0,0,0,0,0,0,1.1068,1.1071,1.1093,1.1093,1.1093,1.1106,1.1103,1.1123,1.1104,1.11,1.1103,1.1102,1.1115,1.1116,1.1121,1.1144,1.1144,1.1125,1.1125,1.1126,1.1126,0,0,0,0,0,0,0,1.1067,1.107,1.1102,1.1093,1.1093,1.109,1.1092,1.1107,1.1111,1.11,1.11,1.1102,1.1115,1.112,1.1121,1.1145,1.1125,1.1126,1.1127,1.1127,1.1186,1.1187,0,0,0,0,0,0,1.1066,1.1069,1.1101,1.1103,1.1079,1.1092,1.1094,1.1102,1.1111,1.1111,1.1103,1.1101,1.1118,1.112,1.1122,1.1149,1.1126,1.1127,1.1128,1.1186,1.1187,1.1187,0,0,0,0,0,0,1.1065,1.1069,1.1101,1.1086,1.1089,1.1093,1.1103,1.1103,1.1108,1.1113,1.1113,1.1107,1.1118,1.112,1.1138,1.1149,1.1128,1.1129,1.1185,1.1186,1.1187,1.1203,0,0,0,0,0,0,1.1064,1.1069,1.1078,1.1086,1.109,1.1117,1.1104,1.1104,1.1111,1.111,1.1117,1.1118,1.1117,1.1136,1.1139,1.1151,1.113,1.1184,1.1185,1.1187,1.1201,1.1204,1.1207,0,0,0,0,0,1.1062,1.1081,1.1078,1.1082,1.1102,1.1118,1.112,1.112,1.1112,1.1121,1.1123,1.1118,1.1148,1.1138,1.1141,1.1153,1.1183,1.1185,1.1187,1.12,1.1204,1.1207,0,0,0,0,0,0,1.1072,1.1082,1.1079,1.1101,1.1109,1.1116,1.1127,1.1124,1.1133,1.1132,1.113,1.1132,1.115,1.1154,1.1143,1.1176,1.1164,1.1166,1.1173,1.1176,1.1179,1.1178,1.1131,0,0,0,0,0,1.1077,1.1091,1.1098,1.1116,1.112,1.1123,1.113,1.1129,1.1137,1.114,1.1144,1.1151,1.1162,1.1169,1.118,1.1202,1.1203,1.1212,1.1214,1.1217,1.1219,1.1231,1.1235,1.1193,1.1193,1.1193,0,0,1.1088,1.1094,1.1102,1.1118,1.1124,1.1138,1.1126,1.114,1.115,1.1142,1.1159,1.1163,1.117,1.119,1.1199,1.1194,1.1231,1.1219,1.1221,1.1222,1.1233,1.1237,1.124,1.1195,1.1194,1.1194,0,0,1.1113,1.1119,1.1136,1.1142,1.1152,1.1154,1.1158,1.1166,1.1168,1.1186,1.118,1.1191,1.121,1.1216,1.1222,1.125,1.1245,1.1253,1.1268,1.1279,1.1283,1.1286,1.1296,1.1299,1.1255,1.1255,1.1255,0,1.1124,1.1144,1.1144,1.1159,1.1166,1.1161,1.1177,1.1183,1.1196,1.12,1.1194,1.1218,1.1223,1.1244,1.1251,1.1256,1.126,1.1252,1.1282,1.1285,1.1288,1.1297,1.1301,1.1256,1.1256,1.1256,1.1256,0,1.1157,1.1171,1.1183,1.1197,1.1205,1.122,1.1222,1.1231,1.1229,1.1232,1.125,1.1255,1.1267,1.1272,1.127,1.1293,1.1289,1.1283,1.1271,1.1293,1.1302,1.1305,1.1258,1.1257,1.1257,1.1257,0,0,1.1189,1.1203,1.1207,1.1213,1.1224,1.1234,1.1249,1.1262,1.1269,1.1277,1.129,1.1306,1.1301,1.1307,1.1306,1.1316,1.1338,1.1308,1.1308,1.1313,1.1364,1.1369,1.1373,1.1335,1.1335,1.1336,1.1363,0,1.1215,1.1243,1.1244,1.1269,1.1281,1.1277,1.129,1.1297,1.13,1.1311,1.1313,1.1325,1.1317,1.132,1.133,1.1333,1.1348,1.1331,1.1346,1.1346,1.1344,1.1377,1.1383,1.1408,1.1366,1.1367,1.1367,0,1.1249,1.126,1.1287,1.1296,1.1301,1.1313,1.1325,1.1335,1.1343,1.1345,1.1352,1.1349,1.1364,1.1352,1.1373,1.1361,1.1367,1.1369,1.137,1.1372,1.1358,1.138,1.1416,1.142,1.1373,1.1373,1.1372,0,1.127,1.1291,1.131,1.1315,1.1326,1.1335,1.134,1.1347,1.1355,1.1364,1.1369,1.138,1.1386,1.1394,1.1395,1.1386,1.1415,1.1403,1.1416,1.1416,1.1422,1.1422,1.146,1.1426,1.1426,1.1426,1.1426,0,1.1299,1.1315,1.132,1.1331,1.1349,1.135,1.1367,1.1371,1.1378,1.139,1.1386,1.1397,1.1397,1.1408,1.1408,1.1425,1.1427,1.1428,1.1428,1.1429,1.1429,1.1433,1.1431,1.1427,1.1427,1.1427,1.1427,0,1.1325,1.1329,1.1349,1.1358,1.1361,1.1374,1.1381,1.1392,1.1394,1.1409,1.1413,1.1416,1.1429,1.143,1.1445,1.1445,1.1465,1.1463,1.1463,1.1462,1.1475,1.1474,1.1518,1.1523,1.1486,1.1486,1.1486,0,1.1343,1.1356,1.1367,1.1375,1.1381,1.1394,1.1402,1.1403,1.1411,1.1422,1.1431,1.1444,1.1454,1.1474,1.1477,1.1489,1.1487,1.1501,1.1488,1.1488,1.1487,1.1486,1.1487,1.1504,1.1504,1.1504,1.1505,0,1.1375,1.1377,1.1389,1.1402,1.1412,1.1422,1.1431,1.1437,1.1439,1.1449,1.1462,1.147,1.1486,1.1498,1.1509,1.1513,1.1509,1.1509,1.1512,1.1513,1.1512,1.1513,1.147,1.1508,1.1507,1.1507,1.1507,1.1507,1.1398,1.141,1.1419,1.1433,1.144,1.1449,1.146,1.1464,1.1476,1.1489,1.1489,1.1504,1.1511,1.1526,1.1531,1.1542,1.1537,1.1542,1.1544,1.1545,1.1547,1.1511,1.1544,1.1544,1.1544,1.1544,1.1544,0,1.143,1.1437,1.1449,1.1463,1.1474,1.147,1.148,1.1489,1.1503,1.1511,1.1521,1.1537,1.1549,1.1554,1.1565,1.1573,1.1572,1.1576,1.1576,1.1577,1.155,1.1546,1.1577,1.1577,1.1577,1.1577,1.1577,1.1577,1.1448,1.1467,1.147,1.1492,1.1498,1.1513,1.152,1.1528,1.1534,1.1552,1.1563,1.1566,1.1573,1.1585,1.1596,1.1597,1.1601,1.1607,1.1607,1.1582,1.1579,1.1575,1.1571,1.1608,1.1608,1.1633,1.1633,1.1633]}]]